Location: Albuquerque Trailhead
(34.7934°N, 106.3736°W)
Time: 00:36:19
(UTC+00:00)

SJ 16-02 - Pass Details

Date: 20 June 2021
Orbit: 606 x 616 km, 75.0° (Epoch: 01 August)

Event Time Altitude Azimuth Distance (km) Brightness Sun altitude
Rises 07:03:22 0° 349° (NNW) 2,867 5.9 -31.8°
Reaches altitude 10° 07:05:39 10° 353° (N) 1,959 4.8 -31.8°
Enters shadow 07:07:57 29° 7° (N) 1,114 3.2 -31.8°
